OpenBCM V1.08-3-g9b42 (Linux)

Packet Radio Mailbox

OK0NBR

[Sao_Jose_dos_Campo]

 Login: GUEST





  
I0OJJ  > KEPS     31.12.25 06:08l 322 Lines 15316 Bytes #242 (0) @ AMSAT
BID : ORB25365.1
Read: GUEST
Subj: 2Line Orbital Elements 25365.AMSAT
Path: OK0NBR<SR1BSZ<EA2RCF<I0OJJ
Sent: 251231/0021z @:I0OJJ.ITA.EU [Rome] obcm1.08-11-2-gbfe9
From: I0OJJ @ I0OJJ.ITA.EU (Gustavo)
To:   KEPS @ AMSAT
X-Info: This message was generated automatically


QST de W1STR

AMSAT Orbital Elements for Amateur Satellites in TLE Format
From Orbital Analysis Office
New England Sci-Tech STEM Education Center
Natick MA December 31, 2025
To all radio amateurs


These element sets describe the orbits of various satellites 
in use by the amateur radio community. For details see:
www.amsat.org/keplerian-elements-formats/

A daily update of element sets is available at:
www.amsat.org/tle/daily-bulletin.txt
or without bulletin text:
www.amsat.org/tle/dailytle.txt


AO-07
1 07530U 74089B   25364.62164360 -.00000017  00000-0  18556-3 0  9998
2 07530 101.9965  11.0769 0012407  93.0027  21.3661 12.53694636339398
UO-11
1 14781U 84021B   25364.85610115  .00003386  00000-0  35478-3 0  9993
2 14781  97.7827 327.6060 0008478  31.6934 328.4792 14.90213240232053
AO-27
1 22825U 93061C   25364.76005584  .00000231  00000-0  10492-3 0  9998
2 22825  98.7118  67.0678 0007591 229.7808 130.2711 14.30884211682910
FO-29
1 24278U 96046B   25364.59191242  .00000014  00000-0  48975-4 0  9993
2 24278  98.5452 231.3296 0349997 173.6397 186.9362 13.53263716450361
GO-32
1 25397U 98043D   25364.54910323  .00000195  00000-0  10440-3 0  9994
2 25397  98.9937 348.1737 0001413  26.2576 333.8673 14.24382830427329
ISS
1 25544U 98067A   25364.53284235  .00016289  00000-0  30357-3 0  9999
2 25544  51.6331  54.3560 0007484 320.1003  39.9435 15.48944140545610
NO-44
1 26931U 01043C   25364.26857038  .00000400  00000-0  18039-3 0  9996
2 26931  67.0518 321.1470 0007385 268.9498  91.0758 14.31866500266263
SO-50
1 27607U 02058C   25364.41263793  .00003485  00000-0  43149-3 0  9996
2 27607  64.5543 290.9731 0072961 293.2877  66.0560 14.82476462239433
CO-55
1 27844U 03031E   25364.57533810  .00000638  00000-0  29600-3 0  9991
2 27844  98.6762  10.2482 0008879 320.4068  39.6462 14.24196534167673
CO-57
1 27848U 03031J   25364.48024067  .00000540  00000-0  25658-3 0  9995
2 27848  98.6792  10.0023 0009082 339.8514  20.2305 14.23501914167376
RS-22
1 27939U 03042A   25364.85595193  .00001825  00000-0  29204-3 0  9990
2 27939  98.3370 179.5387 0012468  83.1077  24.1314 14.73025716190763
CO-58
1 28895U 05043F   25364.38796919  .00003328  00000-0  53786-3 0  9994
2 28895  98.2730 151.7664 0014659  25.2088 334.9831 14.71975017 76919
CO-65
1 32785U 08021C   25351.68477250  .00005656  00000-0  38073-3 0  9997
2 32785  97.8081 324.8433 0007829 290.5969  69.4418 15.07103756957832
CO-66
1 32791U 08021J   25364.41652531  .00026105  00000-0  10180-2 0  9996
2 32791  97.7448 350.1792 0003788 145.1321 215.0165 15.25916074961492
RS-30
1 32953U 08025A   25364.81824104  .00000025  00000-0  11108-3 0  9996
2 32953  82.5026 100.1796 0018445 320.5592  39.4145 12.43172659798773
SRMSAT
1 37841U 11058D   25364.33315771  .00000539  00000-0  14888-3 0  9997
2 37841  19.9734   1.4763 0011912 145.5066 242.5391 14.11518262733932
ZACUBE-1
1 39417U 13066B   25364.54616869  .00009097  00000-0  73614-3 0  9994
2 39417  97.8052 321.1188 0042389  90.5123 270.0957 14.99273357655441
Delfi-N3xt
1 39428U 13066N   25364.71531394  .00015536  00000-0  14378-2 0  9990
2 39428  97.8347 280.5118 0080383  47.2029 313.5912 14.92146108649477
GOMX-1
1 39430U 13066Q   25364.82030911  .00006136  00000-0  93611-3 0  9998
2 39430  97.6588 210.8159 0128860 258.0784 100.5951 14.68696841645198
LO-74
1 39440U 13066AA  25351.56788106  .00003439  00000-0  33426-3 0  9993
2 39440  97.8708 295.2332 0058016 269.4523  90.0047 14.92015584649893
AO-73
1 39444U 13066AE  25364.85898672  .00015866  00000-0  10629-2 0  9999
2 39444  97.8072 328.3647 0040303  57.0923 303.4171 15.06304071654290
DTUSAT-2
1 40030U 14033W   25351.70002679  .00007073  00000-0  41774-3 0  9998
2 40030  98.0754 333.4459 0009697 125.2587 234.9550 15.11812878625232
EO-80
1 40032U 14033Y   25364.81370552  .00014320  00000-0  83255-3 0  9997
2 40032  98.0652 346.6715 0009150  40.0938 320.0965 15.12165555627198
LILACSAT-2
1 40908U 15049K   25364.87103928  .00024676  00000-0  51788-3 0  9995
2 40908  97.4898  30.8166 0009087 134.3236 225.8759 15.45323628569702
IO-86
1 40931U 15052B   25151.18580175  .00001241  00000-0  78118-4 0  9996
2 40931   6.0006  24.0987 0012733 338.8432  21.1169 14.78805930523159
Horyu-4
1 41340U 16012D   25364.82521875  .00075834  00000-0  11837-2 0  9999
2 41340  30.9913 185.6461 0006246  50.3444 309.7756 15.52451064544360
Lapan A3
1 41603U 16040E   25364.85722119  .00006788  00000-0  22381-3 0  9998
2 41603  97.1431   1.7568 0008672 257.0783 102.9491 15.31720786529038
CAS-2T
1 41847U 16066G   25364.77533505  .00001995  00000-0  29179-3 0  9993
2 41847  98.4016  77.3400 0342451 280.3540  75.9223 14.44181327480483
TechnoSat
1 42829U 17042E   25364.43182701  .00006050  00000-0  44581-3 0  9991
2 42829  97.4051 163.8797 0016844 314.8517  45.1340 15.03563764461330
AO-91
1 43017U 17073E   25364.61468867  .00014453  00000-0  67432-3 0  9991
2 43017  97.4943 230.4083 0159519 188.5797 171.2700 15.09269364439939
S-Net D
1 43186U 18014G   25364.72556558  .00010218  00000-0  55640-3 0  9994
2 43186  97.5492 265.6715 0006846 236.4074 123.6505 15.14600556433243
S-Net B
1 43187U 18014H   25364.73391301  .00010491  00000-0  57149-3 0  9998
2 43187  97.5495 265.6607 0007653 231.4215 128.6332 15.14575879433248
S-Net A
1 43188U 18014J   25364.72519865  .00010238  00000-0  55734-3 0  9992
2 43188  97.5502 265.8315 0007482 231.9718 128.0839 15.14606934433242
S-Net C
1 43189U 18014K   25364.67087117  .00010305  00000-0  56134-3 0  9997
2 43189  97.5521 265.8258 0009155 224.4231 135.6267 15.14568307431783
Ten-Koh
1 43677U 18084G   25364.50041365  .00005054  00000-0  39104-3 0  9996
2 43677  98.0754 184.8421 0007886 334.8135  25.2703 15.01939723390838
PO-101
1 43678U 18084H   25364.80278045  .00005669  00000-0  46606-3 0  9994
2 43678  98.1060 188.9968 0007300 359.4738   0.6475 14.99556778390973
QO-100
1 43700U 18090A   25364.81294691  .00000162  00000-0  00000+0 0  9990
2 43700   0.0179  31.6284 0001432 273.4877 112.8022  1.00271142 25983
MinXSS-2
1 43758U 18099A   25364.74755804  .00039842  00000-0  11493-2 0  9990
2 43758  97.4777  72.3657 0009880 147.1373 213.0486 15.35543885388180
AO-95
1 43770U 18099N   25364.60876436  .00018795  00000-0  81570-3 0  9992
2 43770  97.4657  60.7614 0008641 214.1200 145.9482 15.22347132387533
SNUSat 2
1 43782U 18099AA  25364.38575283  .00013861  00000-0  67111-3 0  9990
2 43782  97.4335  55.4914 0011469 159.5015 200.6682 15.18620975387389
SnugLite
1 43784U 18099AC  25364.78842235  .00019133  00000-0  82109-3 0  9992
2 43784  97.4149  55.9997 0003760 141.6887 218.4617 15.22752475387655
ITASat 1
1 43786U 18099AE  25364.71488654  .00011702  00000-0  60467-3 0  9995
2 43786  97.4308  54.6524 0012415 214.5658 145.4769 15.16371123387353
EAGLET 1
1 43790U 18099AJ  25364.64897479  .00007280  00000-0  43531-3 0  9990
2 43790  97.4505  53.7256 0010860 200.8747 159.2041 15.11305751386868
ESEO
1 43792U 18099AL  25364.65088362  .00003412  00000-0  25364-3 0  9993
2 43792  97.4236  44.1028 0012216 180.0298 180.0930 15.03575700386479
JO-97
1 43803U 18099AX  25364.70379539  .00025578  00000-0  95116-3 0  9990
2 43803  97.4404  62.4664 0007239 139.6332 220.5445 15.27478648387859
Suomi 100
1 43804U 18099AY  25364.71729032  .00019804  00000-0  82220-3 0  9996
2 43804  97.4461  61.0406 0011532 148.8317 211.3606 15.23813402387728
ISAT
1 43879U 18111D   25364.77134527  .00058794  00000-0  13129-2 0  9990
2 43879  97.5909 285.2100 0006200 163.6846 196.4602 15.43317649385021
UWE-4
1 43880U 18111E   25364.75764854  .00040481  00000-0  11743-2 0  9996
2 43880  97.5856 281.7940 0008390 194.8838 165.2159 15.35379812384847
Sparrow
1 43881U 18111F   25364.79310213  .00063363  00000-0  13010-2 0  9990
2 43881  97.6099 289.1002 0003008 190.0523 170.0666 15.45796058385157
Prox-1
1 44339U 19036A   25364.71120010  .00021581  00000-0  23939-2 0  9999
2 44339  23.9941 155.6952 0005990 250.7665 109.2185 14.85704046348347
Taurus 1
1 44530U 19059C   25364.88591397  .00016123  00000-0  27223-2 0  9991
2 44530  98.6228 154.7435 0009039 119.4186 240.7922 14.69480141333905
TO-108
1 44881U 19093C   25364.81240301  .00001593  00000-0  18757-3 0  9995
2 44881  97.7738  76.0383 0012340 282.7219  77.2617 14.86147386326409
FloripaSat 1
1 44885U 19093G   25364.83836389  .00010809  00000-0  83824-3 0  9995
2 44885  97.8016  93.1183 0009326 270.0589  89.9566 15.01533378327368
RS-44
1 44909U 19096E   25364.76134267 -.00000002  00000-0 -56261-4 0  9995
2 44909  82.5216  91.6346 0217714 177.9318 182.2737 12.79746278280800
SALSAT
1 46495U 20068K   25364.42741971  .00013006  00000-0  49782-3 0  9992
2 46495  97.8793 352.6590 0010728 163.3489 196.8103 15.26654957289585
CSS (TIANHE-1)
1 48274U 21035A   25364.77333338  .00024941  00000-0  30324-3 0  9998
2 48274  41.4669 267.1660 0009716 184.6419 175.4330 15.59924070266842
CUTE
1 49263U 21088D   25364.48875008  .00041984  00000-0  52354-3 0  9991
2 49263  97.4337  88.1440 0004946 194.0570 166.0550 15.59773965236060
TeikyoSat 4
1 49396U 21102B   25364.64251942  .00004261  00000-0  27485-3 0  9992
2 49396  97.3883  35.5684 0012995 147.1254 213.0786 15.08732961227305
Z-Sat
1 49399U 21102E   25364.85640091  .00006926  00000-0  35602-3 0  9995
2 49399  97.3569  40.2541 0018601 112.2014 248.1195 15.16622253227912
KOSEN 1
1 49402U 21102H   25364.69661529  .00012230  00000-0  50659-3 0  9995
2 49402  97.3453  45.2139 0016255  83.6033 276.7055 15.23934539228332
HO-113
1 50466U 21131B   25364.84088215  .00001133  00000-0  36510-3 0  9991
2 50466  98.5038  93.1705 0003229 235.4053 124.6831 14.41139856210863
